AirNav   Air Wisconsin Up To $57,000 Bonus
 
 1269 users online  

MS41 Flying Y Service Airport
Tutwiler, Mississippi, USA

GOING TO TUTWILER?


FAA INFORMATION EFFECTIVE 31 DECEMBER 2020

Location

FAA Identifier: MS41
Lat/Long: 34-00-10.8905N 090-25-33.1723W
34-00.181508N 090-25.552872W
34.0030251,-90.4258812
(estimated)
Elevation: 149 ft. / 45 m (estimated)
Variation: 03E (1985)
From city: 1 mile SE of TUTWILER, MS
Time zone: UTC -6 (UTC -5 during Daylight Saving Time)
Zip code: 38963

Airport Operations

Airport use: Private use. Permission required prior to landing
Activation date: 11/1946
Control tower: no
ARTCC: MEMPHIS CENTER
FSS: GREENWOOD FLIGHT SERVICE STATION
Attendance: MON-FRI DAYLIGHT HOURS
Wind indicator: yes
Segmented circle: no

Airport Communications

WX AWOS-3 at CKM (18 nm N): 120.675 (662-624-9777)

Nearby radio navigation aids

VOR radial/distance  VOR name  Freq  Var
SQSr344/33.2SIDON VORTAC114.7003E
UJMr159/36.5MARVELL VOR/DME109.6001E
GLHr040/40.0GREENVILLE VOR/DME114.2504E

Airport Services

Fuel available: A
Airframe service: NONE
Powerplant service: NONE

Runway Information

Runway N/S

Dimensions: 2400 x 20 ft. / 732 x 6 m
Surface: asphalt
RUNWAY N  RUNWAY S
Latitude: 33-59.991745N34-00.371272N
Longitude: 090-25.620292W090-25.485450W
Traffic pattern: leftleft

Airport Ownership and Management from official FAA records

Ownership: Privately-owned
Owner: FLYING Y AERO INC
BOX 250
TUTWILER, MS 38963
Phone 662-345-8395
Manager: PAT RYAN AND MONA WHITTEN
BOX 250
TUTWILER, MS 38963
Phone 662-345-8395

Airport Operational Statistics

Aircraft based on the field: 4
Single engine airplanes: 4
    

Additional Remarks

FOR CD CTC MEMPHIS ARTCC AT 901-368-8453.

Instrument Procedures

There are no published instrument procedures at MS41.

Some nearby airports with instrument procedures:

M37 - Ruleville-Drew Airport (14 nm S)
KMMS - Selfs Airport (15 nm NE)
KCKM - Fletcher Field Airport (18 nm N)
KRNV - Cleveland Municipal Airport (22 nm SW)
KGNF - Grenada Municipal Airport (33 nm E)
 
Loc | Ops | Rwys | IFR | FBO | Links
Com | Nav | Svcs | Stats | Notes
Area around MS41 (Flying Y Service Airport)
 
Road maps at: MapQuest Bing Google
 
Aerial photo
No photo
 
Sectional chart

 
Airport distance calculator
Flying to Flying Y Service Airport? Find the distance to fly.

From to MS41

Sunrise and sunset
Times for 16-Jan-2021
 Local
(UTC-6)
 Zulu
(UTC)
Morning civil twilight06:4112:41
Sunrise07:0813:08
Sunset17:1523:15
Evening civil twilight17:4223:42

Current date and time
Zulu (UTC)  16-Jan-2021 16:08:57
Local (UTC-6)  16-Jan-2021 10:08:57
 
METAR
KCKM 
18nm N 
161555Z AUTO 28014KT 10SM 05/M01 A3004 RMK A01
KRNV 
22nm SW 
161555Z AUTO 31012G19KT 10SM CLR 05/M02 A3005 RMK AO2 T00461020
KPMU 
34nm NE 
161555Z AUTO 28012KT 10SM SCT031 SCT040 05/M02 A3003 RMK AO2
KGWO 
35nm SE 
161553Z AUTO 27008G14KT 10SM CLR 06/M02 A3006 RMK AO2 SLP179 T00611022
TAF
KGWO 
35nm SE 
161128Z 1612/1712 28007KT P6SM BKN050 FM161600 28011G16KT P6SM SCT050 FM162300 26010KT P6SM SKC
KGLH 
41nm SW 
161128Z 1612/1712 27010KT P6SM SKC
NOTAMs
Click for the latest NOTAMs
NOTAMs are issued by the DoD/FAA and will open in a separate window not controlled by AirNav.

 

 
 

Would you like to see your business listed on this page?

 If your business provides an interesting product or service to pilots, flight crews, aircraft, or users of the Flying Y Service Airport, you should consider listing it here.  To start the listing process, click on the button below
 
Add a business
 

Other Pages about Flying Y Service Airport

Update a link
 
Copyright © AirNav, LLC. All rights reserved. Privacy Policy  Contact